�������l�o���
Date,Time,MP-1(��Sv/h),MP-2(��Sv/h),MP-3(��Sv/h),MP-4(��Sv/h),MP-5(��Sv/h),MP-6(��Sv/h),MP-7(��Sv/h),����,����(m/s),���J
2017/04/15,00:00,0.381,0.237,0.392,0.365,0.332,0.192,0.163,��쐼,4.6,��
2017/04/15,00:10,0.380,0.236,0.393,0.362,0.330,0.192,0.163,��쐼,6.4,��
2017/04/15,00:20,0.379,0.236,0.392,0.362,0.332,0.191,0.162,��쐼,4.5,��
2017/04/15,00:30,0.381,0.238,0.393,0.365,0.331,0.191,0.162,��쐼,4.1,��
2017/04/15,00:40,0.380,0.238,0.393,0.363,0.331,0.193,0.163,��쐼,4.5,��
2017/04/15,00:50,0.379,0.237,0.392,0.363,0.332,0.191,0.163,��쐼,4.2,��
2017/04/15,01:00,0.380,0.236,0.392,0.365,0.331,0.192,0.163,��쐼,3.2,��
2017/04/15,01:10,0.380,0.237,0.394,0.362,0.331,0.192,0.164,��쐼,1.7,��
2017/04/15,01:20,0.379,0.237,0.391,0.365,0.332,0.193,0.164,��쐼,3.9,��
2017/04/15,01:30,0.381,0.236,0.393,0.364,0.331,0.193,0.164,��쐼,4.5,��
2017/04/15,01:40,0.380,0.238,0.394,0.363,0.332,0.191,0.163,�쐼,3.3,��
2017/04/15,01:50,0.379,0.237,0.393,0.365,0.331,0.193,0.164,��쐼,0.9,��
2017/04/15,02:00,0.381,0.237,0.393,0.364,0.330,0.193,0.164,-,CALM,��
2017/04/15,02:10,0.378,0.238,0.396,0.364,0.333,0.192,0.163,�k��,1.8,��
2017/04/15,02:20,0.380,0.237,0.392,0.364,0.331,0.192,0.164,�k��,1.9,��
2017/04/15,02:30,0.380,0.236,0.395,0.364,0.332,0.193,0.163,�k,2.9,��
2017/04/15,02:40,0.381,0.237,0.394,0.363,0.332,0.192,0.163,�k,3.1,��
2017/04/15,02:50,0.379,0.237,0.391,0.366,0.329,0.193,0.163,�k,3.1,��
2017/04/15,03:00,0.379,0.236,0.394,0.364,0.332,0.192,0.163,�k,2.9,��
2017/04/15,03:10,0.378,0.237,0.393,0.364,0.331,0.193,0.163,�k��,1.9,��
2017/04/15,03:20,0.380,0.237,0.393,0.366,0.331,0.192,0.163,��,1.0,��
2017/04/15,03:30,0.380,0.237,0.391,0.363,0.332,0.191,0.164,��쐼,0.9,��
2017/04/15,03:40,0.379,0.237,0.394,0.365,0.330,0.192,0.163,�쓌,2.3,��
2017/04/15,03:50,0.379,0.237,0.393,0.364,0.331,0.193,0.164,��,2.5,��
2017/04/15,04:00,0.380,0.238,0.393,0.364,0.332,0.192,0.164,�쐼,1.7,��
2017/04/15,04:10,0.379,0.237,0.394,0.364,0.329,0.192,0.162,���쐼,2.7,��
2017/04/15,04:20,0.379,0.237,0.394,0.364,0.331,0.192,0.164,�쐼,3.2,��
2017/04/15,04:30,0.380,0.238,0.395,0.362,0.331,0.192,0.163,�쐼,2.8,��
2017/04/15,04:40,0.378,0.238,0.397,0.366,0.330,0.192,0.163,�쐼,2.2,��
2017/04/15,04:50,0.381,0.238,0.392,0.365,0.332,0.193,0.163,�쐼,2.5,��
2017/04/15,05:00,0.379,0.238,0.393,0.364,0.332,0.192,0.164,�쐼,4.5,��
2017/04/15,05:10,0.379,0.238,0.395,0.364,0.332,0.193,0.163,�쐼,6.2,��
2017/04/15,05:20,0.381,0.236,0.394,0.364,0.332,0.192,0.163,�쐼,6.2,��
2017/04/15,05:30,0.380,0.237,0.392,0.364,0.329,0.193,0.163,�쐼,6.1,��
2017/04/15,05:40,0.380,0.236,0.396,0.365,0.333,0.191,0.163,��쐼,5.8,��
2017/04/15,05:50,0.381,0.238,0.393,0.364,0.331,0.193,0.164,��쐼,5.6,��
2017/04/15,06:00,0.379,0.238,0.393,0.363,0.331,0.192,0.161,�쐼,5.7,��
2017/04/15,06:10,0.379,0.235,0.395,0.366,0.331,0.192,0.163,�쐼,5.5,��
2017/04/15,06:20,0.380,0.238,0.393,0.363,0.329,0.192,0.162,�쐼,5.6,��
2017/04/15,06:30,0.378,0.238,0.393,0.363,0.332,0.192,0.162,���쐼,6.6,��
2017/04/15,06:40,0.380,0.238,0.395,0.364,0.329,0.192,0.164,���쐼,5.2,��
2017/04/15,06:50,0.381,0.238,0.394,0.364,0.333,0.192,0.163,���쐼,5.4,��
2017/04/15,07:00,0.376,0.237,0.392,0.365,0.330,0.191,0.162,�쐼,7.0,��
2017/04/15,07:10,0.381,0.237,0.394,0.359,0.332,0.190,0.163,�쐼,8.1,��
2017/04/15,07:20,0.378,0.236,0.391,0.365,0.330,0.192,0.163,�쐼,7.5,��
2017/04/15,07:30,0.378,0.236,0.395,0.361,0.332,0.192,0.163,�쐼,5.9,��
2017/04/15,07:40,0.378,0.236,0.390,0.366,0.330,0.193,0.161,�쐼,5.9,��
2017/04/15,07:50,0.379,0.236,0.392,0.363,0.333,0.192,0.162,��쐼,5.9,��
2017/04/15,08:00,0.379,0.235,0.391,0.358,0.328,0.192,0.163,�쐼,4.8,��
2017/04/15,08:10,0.379,0.237,0.391,0.362,0.332,0.191,0.161,�쐼,6.0,��
2017/04/15,08:20,0.375,0.236,0.394,0.363,0.329,0.192,0.161,�쐼,6.7,��
2017/04/15,08:30,0.380,0.235,0.390,0.360,0.328,0.192,0.161,�쐼,4.4,��
2017/04/15,08:40,0.377,0.236,0.392,0.361,0.331,0.190,0.161,��쐼,4.3,��
2017/04/15,08:50,0.376,0.238,0.389,0.365,0.329,0.191,0.162,��,4.8,��
2017/04/15,09:00,0.380,0.235,0.394,0.363,0.328,0.191,0.163,��,6.1,��
2017/04/15,09:10,0.377,0.237,0.392,0.360,0.331,0.192,0.162,��쐼,5.7,��
2017/04/15,09:20,0.377,0.237,0.392,0.365,0.328,0.192,0.162,��쐼,6.3,��
2017/04/15,09:30,0.378,0.235,0.393,0.363,0.327,0.190,0.164,��쐼,5.0,��
2017/04/15,09:40,0.377,0.237,0.391,0.360,0.330,0.192,0.162,��,8.0,��
2017/04/15,09:50,0.375,0.237,0.392,0.362,0.329,0.192,0.162,��,10.7,��
2017/04/15,10:00,0.379,0.236,0.389,0.365,0.327,0.191,0.163,��,9.8,��
2017/04/15,10:10,0.378,0.238,0.392,0.363,0.330,0.192,0.161,��,9.1,��
2017/04/15,10:20,0.375,0.237,0.394,0.360,0.330,0.192,0.163,��,9.0,��
2017/04/15,10:30,0.379,0.236,0.390,0.365,0.329,0.191,0.164,��,8.9,��
2017/04/15,10:40,0.379,0.238,0.395,0.363,0.331,0.193,0.162,��,8.6,��
2017/04/15,10:50,0.376,0.237,0.394,0.361,0.331,0.192,0.162,��쐼,10.6,��
2017/04/15,11:00,0.377,0.235,0.389,0.367,0.328,0.190,0.163,��,7.6,��
2017/04/15,11:10,0.380,0.239,0.390,0.364,0.327,0.192,0.161,��,8.2,��
2017/04/15,11:20,0.378,0.238,0.394,0.361,0.332,0.192,0.161,��,7.5,��
2017/04/15,11:30,0.375,0.237,0.391,0.362,0.331,0.191,0.162,��쐼,8.1,��
2017/04/15,11:40,0.379,0.236,0.388,0.365,0.328,0.192,0.162,��,8.7,��
2017/04/15,11:50,0.379,0.238,0.391,0.363,0.327,0.193,0.162,��,7.2,��
2017/04/15,12:00,0.375,0.238,0.394,0.363,0.330,0.192,0.164,��쐼,4.8,��
2017/04/15,12:10,0.374,0.237,0.392,0.359,0.332,0.192,0.163,��,5.3,��
2017/04/15,12:20,0.374,0.237,0.391,0.361,0.332,0.191,0.161,��,9.0,��
2017/04/15,12:30,0.375,0.237,0.389,0.360,0.329,0.191,0.162,��,9.3,��
2017/04/15,12:40,0.378,0.237,0.390,0.360,0.329,0.191,0.162,��,9.0,��
2017/04/15,12:50,0.380,0.235,0.388,0.361,0.328,0.192,0.162,��,11.2,��
2017/04/15,13:00,0.379,0.238,0.386,0.366,0.327,0.192,0.162,��,11.1,��
2017/04/15,13:10,0.376,0.239,0.392,0.368,0.330,0.192,0.163,��쐼,12.3,��
2017/04/15,13:20,0.382,0.237,0.394,0.363,0.331,0.193,0.163,��,1.8,��
2017/04/15,13:30,0.381,0.239,0.392,0.366,0.329,0.192,0.162,�k,8.0,��
2017/04/15,13:40,0.377,0.238,0.394,0.365,0.332,0.193,0.163,�k,8.3,�L
2017/04/15,13:50,0.383,0.237,0.396,0.363,0.331,0.193,0.163,�k,6.3,��
2017/04/15,14:00,0.379,0.239,0.391,0.367,0.328,0.190,0.161,�k,6.6,��
2017/04/15,14:10,0.379,0.237,0.395,0.365,0.332,0.191,0.163,�k�k��,7.2,��
2017/04/15,14:20,0.380,0.238,0.395,0.363,0.330,0.192,0.163,�k,7.5,��
2017/04/15,14:30,0.378,0.239,0.391,0.360,0.327,0.192,0.161,�k,5.4,��
2017/04/15,14:40,0.382,0.237,0.392,0.367,0.331,0.192,0.163,�k,4.5,�L
2017/04/15,14:50,0.380,0.240,0.396,0.365,0.333,0.193,0.165,�k,4.7,�L
2017/04/15,15:00,0.380,0.236,0.392,0.363,0.329,0.192,0.163,�k��,2.4,��
2017/04/15,15:10,0.383,0.240,0.396,0.367,0.334,0.193,0.164,�k��,3.8,��
2017/04/15,15:20,0.380,0.237,0.394,0.364,0.332,0.193,0.163,���k��,6.6,��
2017/04/15,15:30,0.381,0.238,0.391,0.363,0.328,0.190,0.162,�k��,5.7,��
2017/04/15,15:40,0.380,0.239,0.397,0.366,0.326,0.192,0.164,�k��,5.8,��
2017/04/15,15:50,0.378,0.236,0.393,0.363,0.329,0.191,0.161,�k��,5.7,��
2017/04/15,16:00,0.382,0.239,0.396,0.365,0.332,0.191,0.163,���k��,6.7,��
2017/04/15,16:10,0.378,0.238,0.395,0.367,0.330,0.191,0.163,���k��,8.5,��
2017/04/15,16:20,0.380,0.237,0.393,0.362,0.328,0.192,0.163,���k��,6.9,��
2017/04/15,16:30,0.382,0.239,0.395,0.364,0.328,0.192,0.163,���k��,6.6,��
2017/04/15,16:40,0.378,0.237,0.395,0.365,0.328,0.192,0.162,���k��,5.9,��
2017/04/15,16:50,0.383,0.239,0.394,0.364,0.333,0.192,0.164,���k��,3.8,��
2017/04/15,17:00,0.382,0.238,0.395,0.365,0.330,0.192,0.163,���k��,3.8,��
2017/04/15,17:10,0.380,0.240,0.393,0.363,0.328,0.192,0.162,���k��,3.6,��
2017/04/15,17:20,0.382,0.239,0.398,0.365,0.333,0.192,0.164,���k��,2.2,��
2017/04/15,17:30,0.378,0.238,0.394,0.363,0.329,0.192,0.162,��,3.2,��
2017/04/15,17:40,0.382,0.238,0.397,0.365,0.333,0.191,0.163,��,1.0,��
2017/04/15,17:50,0.378,0.239,0.393,0.364,0.330,0.193,0.163,�k�k��,2.1,��
2017/04/15,18:00,0.383,0.238,0.395,0.364,0.329,0.192,0.163,-,CALM,��
2017/04/15,18:10,0.378,0.239,0.394,0.365,0.332,0.192,0.164,���k��,2.8,��
2017/04/15,18:20,0.381,0.238,0.396,0.365,0.330,0.191,0.162,���쐼,3.7,��
2017/04/15,18:30,0.381,0.241,0.394,0.364,0.333,0.192,0.163,��,3.4,��
2017/04/15,18:40,0.383,0.239,0.395,0.365,0.330,0.192,0.162,��,1.8,��
2017/04/15,18:50,0.380,0.239,0.393,0.367,0.331,0.193,0.162,�k��,3.1,��
2017/04/15,19:00,0.380,0.239,0.396,0.365,0.332,0.192,0.163,��,5.1,��
2017/04/15,19:10,0.380,0.237,0.395,0.367,0.332,0.193,0.163,�k��,2.2,��
2017/04/15,19:20,0.380,0.239,0.396,0.363,0.331,0.192,0.163,���쐼,3.6,��
2017/04/15,19:30,0.380,0.238,0.395,0.366,0.332,0.192,0.163,��,6.5,��
2017/04/15,19:40,0.381,0.240,0.396,0.365,0.331,0.193,0.163,���쐼,6.7,��
2017/04/15,19:50,0.379,0.238,0.394,0.366,0.331,0.192,0.163,���쐼,5.5,��
2017/04/15,20:00,0.381,0.239,0.397,0.364,0.332,0.192,0.163,���쐼,7.2,��
2017/04/15,20:10,0.381,0.238,0.395,0.366,0.329,0.193,0.162,��,8.1,��
2017/04/15,20:20,0.381,0.240,0.397,0.366,0.332,0.192,0.162,��,9.2,��
2017/04/15,20:30,0.378,0.240,0.395,0.364,0.329,0.193,0.163,��,9.1,��
2017/04/15,20:40,0.382,0.237,0.395,0.367,0.331,0.192,0.163,��,8.6,��
2017/04/15,20:50,0.380,0.238,0.395,0.364,0.329,0.192,0.162,��,8.4,��
2017/04/15,21:00,0.381,0.239,0.395,0.366,0.332,0.191,0.163,��,6.7,��
2017/04/15,21:10,0.379,0.239,0.397,0.364,0.329,0.192,0.163,��,6.4,��
2017/04/15,21:20,0.384,0.238,0.395,0.366,0.331,0.191,0.163,��,5.9,��
2017/04/15,21:30,0.379,0.239,0.396,0.364,0.329,0.193,0.162,��,6.1,��
2017/04/15,21:40,0.381,0.240,0.396,0.365,0.331,0.192,0.163,��,7.3,��
2017/04/15,21:50,0.379,0.239,0.396,0.363,0.332,0.193,0.164,���쐼,6.9,��
2017/04/15,22:00,0.381,0.239,0.394,0.365,0.330,0.192,0.163,��,7.7,��
2017/04/15,22:10,0.379,0.239,0.396,0.364,0.331,0.191,0.163,��,8.4,��
2017/04/15,22:20,0.383,0.239,0.396,0.366,0.329,0.192,0.163,��,7.3,��
2017/04/15,22:30,0.380,0.240,0.396,0.366,0.333,0.192,0.164,��,7.6,��
2017/04/15,22:40,0.382,0.238,0.395,0.365,0.330,0.193,0.163,��,6.2,��
2017/04/15,22:50,0.380,0.240,0.395,0.366,0.331,0.192,0.163,���쐼,6.5,��
2017/04/15,23:00,0.381,0.238,0.397,0.364,0.330,0.192,0.164,��,6.0,��
2017/04/15,23:10,0.382,0.238,0.394,0.366,0.331,0.191,0.164,��,7.1,��
2017/04/15,23:20,0.381,0.240,0.397,0.365,0.330,0.192,0.163,���쐼,6.2,��
2017/04/15,23:30,0.382,0.240,0.395,0.364,0.329,0.192,0.163,��,6.9,��
2017/04/15,23:40,0.379,0.239,0.398,0.367,0.332,0.192,0.164,��,6.7,��
2017/04/15,23:50,0.381,0.240,0.395,0.363,0.330,0.193,0.163,��,4.4,��
